Location: Lecco
(45.8566°N, 9.3977°E)
Time: 06:28:04
(UTC+02:00)

Altair - Pass Details

Date: 19 August 2020
Orbit: 1501 x 1682 km, 47.2° (Epoch: 25 September)

Event Time Altitude Azimuth Distance (km) Brightness Sun altitude
Rises 07:28:45 0° 292° (WNW) 4,738 9.5 9.5°
Reaches altitude 10° 07:31:56 10° 288° (WNW) 3,730 9.0 10.0°
Maximum altitude 07:40:56 54° 214° (SW) 1,783 7.8 11.6°
Drops below altitude 10° 07:49:44 10° 140° (SE) 3,644 10.1 13.1°
Sets 07:52:48 0° 136° (SE) 4,623 10.6 13.6°
